Darstellungsparameter: Aktuell verwendete Einstellungen:
Skalierung der Graphiken ... ?
xyx+y,   Skalierungsfaktor:      Skalierung: Modus: x, Faktor: 1
Darstellungszeitraum ... ?
Vom - - bis: - -   Zeitraum: 14.04.2020 - 15.04.2020
Min/Max/Avg-Anzeige ... ?
Zeige MMA aktuell
Zeige MMA Monat
Zeige MMA alles
Zeige --A aktuell
Zeige --A Monat
Zeige --A alles
Keine MMA-Anzeige
MMA:
Average (ber die Originaldaten)
MMA-Basis: 14.04.2020 - 15.04.2020
Quicknavigation für Darstellung... ?
Tage:      1T, 2T, 3T, 5T -1T -2T -3T -5T +1T +2T +3T +5T
Wochen: 1W, 2W, 3W -1W -2W -3W +1W +2W +3W
Monate: 1M, 3M, 6M -1M -3M -6M +1M +3M +6M
Jahre:    1J, 3J, 5J, 10J -1J -3J -5J -10J +1J +3J +5J +10J
Nutze für die Darstellung ... ?
Originaldaten oder Mittelwerte auf ...
Stundenbasis Tagesbasis Wochenbasis
Monatsbasis Jahresbasis      Datenbasis: Original-Daten
Darstellen als:
Statistik (Auto) Statistik J:M      Darstellung:
Zur Graphik,    zurück zur Übersicht aller Sensoren.
 
Tabellarische Datenbersicht: ?
 
Sensor: Nr:Datum:Temp:Abs-Feuchte:Windchill:Wind:
Aussen-T/F 1 14-04-2020 00:00:00 4.3 C 4.15 g/m*3 4.3 C 1.6 km/h
2 14-04-2020 00:05:00 4.2 C 4.12 g/m*3 4.2 C 3.2 km/h
3 14-04-2020 00:10:00 4.1 C 4.16 g/m*3 2.55 C 6.4 km/h
4 14-04-2020 00:15:00 4.2 C 4.19 g/m*3 2.17 C 8.1 km/h
5 14-04-2020 00:20:00 4.1 C 4.16 g/m*3 4.1 C 4.8 km/h
6 14-04-2020 00:25:00 4.1 C 4.16 g/m*3 4.1 C 0 km/h
7 14-04-2020 00:30:00 4.1 C 4.1 g/m*3 4.1 C 3.2 km/h
8 14-04-2020 00:35:00 4.1 C 4.16 g/m*3 4.1 C 0 km/h
9 14-04-2020 00:40:00 4 C 4.2 g/m*3 4 C 1.6 km/h
10 14-04-2020 00:45:00 3.9 C 4.17 g/m*3 3.9 C 1.6 km/h
11 14-04-2020 00:50:00 3.8 C 4.14 g/m*3 3.8 C 3.2 km/h
12 14-04-2020 00:55:00 3.8 C 4.08 g/m*3 3.8 C 1.6 km/h
13 14-04-2020 01:00:00 3.8 C 4.08 g/m*3 3.8 C 3.2 km/h
14 14-04-2020 01:05:00 3.9 C 4.04 g/m*3 3.9 C 4.8 km/h
15 14-04-2020 01:10:00 4 C 4.13 g/m*3 4 C 3.2 km/h
16 14-04-2020 01:15:00 4.1 C 4.16 g/m*3 2.55 C 6.4 km/h
17 14-04-2020 01:20:00 4.1 C 4.16 g/m*3 4.1 C 1.6 km/h
18 14-04-2020 01:25:00 3.9 C 4.23 g/m*3 3.9 C 0 km/h
19 14-04-2020 01:30:00 3.6 C 4.15 g/m*3 3.6 C 3.2 km/h
20 14-04-2020 01:35:00 3.4 C 4.15 g/m*3 3.4 C 3.2 km/h
21 14-04-2020 01:40:00 3.3 C 4.19 g/m*3 3.3 C 0 km/h
22 14-04-2020 01:45:00 3.1 C 4.19 g/m*3 3.1 C 0 km/h
23 14-04-2020 01:50:00 2.8 C 4.16 g/m*3 2.8 C 0 km/h
24 14-04-2020 01:55:00 2.6 C 4.17 g/m*3 2.6 C 1.6 km/h
25 14-04-2020 02:00:00 2.4 C 4.17 g/m*3 2.4 C 0 km/h
Sensor: Nr:Datum:Temp:Abs-Feuchte:Windchill:Wind:
Aussen-T/F 26 14-04-2020 02:05:00 2.4 C 4.17 g/m*3 2.4 C 0 km/h
27 14-04-2020 02:10:00 2.3 C 4.14 g/m*3 2.3 C 0 km/h
28 14-04-2020 02:15:00 2.3 C 4.2 g/m*3 2.3 C 0 km/h
29 14-04-2020 02:20:00 2.2 C 4.17 g/m*3 2.2 C 1.6 km/h
30 14-04-2020 02:25:00 2.1 C 4.14 g/m*3 2.1 C 0 km/h
31 14-04-2020 02:30:00 2 C 4.17 g/m*3 2 C 1.6 km/h
32 14-04-2020 02:35:00 1.9 C 4.14 g/m*3 1.9 C 1.6 km/h
33 14-04-2020 02:40:00 1.9 C 4.14 g/m*3 1.9 C 1.6 km/h
34 14-04-2020 02:45:00 1.8 C 4.11 g/m*3 1.8 C 0 km/h
35 14-04-2020 02:50:00 1.7 C 4.14 g/m*3 1.7 C 1.6 km/h
36 14-04-2020 02:55:00 1.6 C 4.16 g/m*3 1.6 C 0 km/h
37 14-04-2020 03:00:00 1.5 C 4.14 g/m*3 1.5 C 0 km/h
38 14-04-2020 03:05:00 1.4 C 4.11 g/m*3 1.4 C 4.8 km/h
39 14-04-2020 03:10:00 1.3 C 4.08 g/m*3 1.3 C 4.8 km/h
40 14-04-2020 03:15:00 1.4 C 4.11 g/m*3 1.4 C 3.2 km/h
41 14-04-2020 03:20:00 1.6 C 4.16 g/m*3 1.6 C 0 km/h
42 14-04-2020 03:25:00 1.6 C 4.16 g/m*3 1.6 C 1.6 km/h
43 14-04-2020 03:30:00 1.5 C 4.19 g/m*3 1.5 C 1.6 km/h
44 14-04-2020 03:35:00 1.5 C 4.14 g/m*3 1.5 C 4.8 km/h
45 14-04-2020 03:40:00 1.5 C 4.14 g/m*3 1.5 C 3.2 km/h
46 14-04-2020 03:45:00 1.5 C 4.19 g/m*3 1.5 C 1.6 km/h
47 14-04-2020 03:50:00 1.5 C 4.14 g/m*3 1.5 C 1.6 km/h
48 14-04-2020 03:55:00 1.5 C 4.14 g/m*3 1.5 C 1.6 km/h
49 14-04-2020 04:00:00 1.4 C 4.11 g/m*3 1.4 C 3.2 km/h
50 14-04-2020 04:05:00 1.4 C 4.16 g/m*3 1.4 C 0 km/h
Sensor: Nr:Datum:Temp:Abs-Feuchte:Windchill:Wind:
Aussen-T/F 51 14-04-2020 04:10:00 1.4 C 4.16 g/m*3 1.4 C 0 km/h
52 14-04-2020 04:15:00 1.3 C 4.13 g/m*3 1.3 C 0 km/h
53 14-04-2020 04:20:00 1.3 C 4.13 g/m*3 1.3 C 0 km/h
54 14-04-2020 04:25:00 1.2 C 4.16 g/m*3 1.2 C 1.6 km/h
55 14-04-2020 04:30:00 1.2 C 4.1 g/m*3 1.2 C 0 km/h
56 14-04-2020 04:35:00 1.1 C 4.13 g/m*3 1.1 C 4.8 km/h
57 14-04-2020 04:40:00 1 C 4.05 g/m*3 1 C 4.8 km/h
58 14-04-2020 04:45:00 0.9 C 4.02 g/m*3 0.9 C 4.8 km/h
59 14-04-2020 04:50:00 0.9 C 4.07 g/m*3 0.9 C 4.8 km/h
60 14-04-2020 04:55:00 0.9 C 4.07 g/m*3 0.9 C 4.8 km/h
61 14-04-2020 05:00:00 0.9 C 4.07 g/m*3 0.9 C 3.2 km/h
62 14-04-2020 05:05:00 0.8 C 4.1 g/m*3 0.8 C 0 km/h
63 14-04-2020 05:10:00 0.7 C 4.07 g/m*3 0.7 C 1.6 km/h
64 14-04-2020 05:15:00 0.6 C 4.04 g/m*3 0.6 C 3.2 km/h
65 14-04-2020 05:20:00 0.6 C 4.09 g/m*3 0.6 C 4.8 km/h
66 14-04-2020 05:25:00 0.6 C 4.09 g/m*3 0.6 C 3.2 km/h
67 14-04-2020 05:30:00 0.7 C 4.17 g/m*3 0.7 C 1.6 km/h
68 14-04-2020 05:35:00 0.8 C 4.2 g/m*3 0.8 C 0 km/h
69 14-04-2020 05:40:00 0.8 C 4.2 g/m*3 0.8 C 0 km/h
70 14-04-2020 05:45:00 0.9 C 4.23 g/m*3 0.9 C 0 km/h
71 14-04-2020 05:50:00 1 C 4.26 g/m*3 1 C 0 km/h
72 14-04-2020 05:55:00 0.9 C 4.23 g/m*3 0.9 C 3.2 km/h
73 14-04-2020 06:00:00 0.8 C 4.2 g/m*3 0.8 C 0 km/h
74 14-04-2020 06:05:00 0.7 C 4.17 g/m*3 0.7 C 0 km/h
75 14-04-2020 06:10:00 0.6 C 4.14 g/m*3 0.6 C 0 km/h
Sensor: Nr:Datum:Temp:Abs-Feuchte:Windchill:Wind:
Aussen-T/F 76 14-04-2020 06:15:00 0.4 C 4.08 g/m*3 0.4 C 0 km/h
77 14-04-2020 06:20:00 0.3 C 4.11 g/m*3 0.3 C 0 km/h
78 14-04-2020 06:25:00 0.2 C 4.13 g/m*3 0.2 C 0 km/h
79 14-04-2020 06:30:00 0.2 C 4.13 g/m*3 0.2 C 1.6 km/h
80 14-04-2020 06:35:00 0.2 C 4.18 g/m*3 0.2 C 0 km/h
81 14-04-2020 06:40:00 0.2 C 4.18 g/m*3 0.2 C 0 km/h
82 14-04-2020 06:45:00 0.3 C 4.25 g/m*3 0.3 C 4.8 km/h
83 14-04-2020 06:50:00 0.5 C 4.31 g/m*3 0.5 C 0 km/h
84 14-04-2020 06:55:00 0.6 C 4.34 g/m*3 0.6 C 0 km/h
85 14-04-2020 07:00:00 0.7 C 4.37 g/m*3 0.7 C 0 km/h
86 14-04-2020 07:05:00 0.8 C 4.4 g/m*3 0.8 C 0 km/h
87 14-04-2020 07:10:00 0.9 C 4.38 g/m*3 0.9 C 0 km/h
88 14-04-2020 07:15:00 0.9 C 4.38 g/m*3 0.9 C 0 km/h
89 14-04-2020 07:20:00 1.1 C 4.44 g/m*3 1.1 C 0 km/h
90 14-04-2020 07:25:00 1.2 C 4.47 g/m*3 1.2 C 0 km/h
91 14-04-2020 07:30:00 1.4 C 4.53 g/m*3 1.4 C 0 km/h
92 14-04-2020 07:35:00 1.5 C 4.51 g/m*3 1.5 C 0 km/h
93 14-04-2020 07:40:00 1.6 C 4.54 g/m*3 1.6 C 0 km/h
94 14-04-2020 07:45:00 1.8 C 4.6 g/m*3 1.8 C 0 km/h
95 14-04-2020 07:50:00 1.9 C 4.58 g/m*3 1.9 C 0 km/h
96 14-04-2020 07:55:00 2.1 C 4.64 g/m*3 2.1 C 0 km/h
97 14-04-2020 08:00:00 2.2 C 4.68 g/m*3 2.2 C 0 km/h
98 14-04-2020 08:05:00 2.3 C 4.71 g/m*3 2.3 C 0 km/h
99 14-04-2020 08:10:00 2.4 C 4.74 g/m*3 2.4 C 0 km/h
100 14-04-2020 08:15:00 2.5 C 4.71 g/m*3 2.5 C 0 km/h
Sensor: Nr:Datum:Temp:Abs-Feuchte:Windchill:Wind:
Aussen-T/F 101 14-04-2020 08:20:00 2.6 C 4.75 g/m*3 2.6 C 0 km/h
102 14-04-2020 08:25:00 2.6 C 4.75 g/m*3 2.6 C 0 km/h
103 14-04-2020 08:30:00 2.6 C 4.8 g/m*3 2.6 C 0 km/h
104 14-04-2020 08:35:00 2.6 C 4.8 g/m*3 2.6 C 4.8 km/h
105 14-04-2020 08:40:00 2.6 C 4.8 g/m*3 2.6 C 3.2 km/h
106 14-04-2020 08:45:00 2.6 C 4.8 g/m*3 2.6 C 0 km/h
107 14-04-2020 08:50:00 2.7 C 4.84 g/m*3 2.7 C 0 km/h
108 14-04-2020 08:55:00 2.8 C 4.87 g/m*3 2.8 C 1.6 km/h
109 14-04-2020 09:00:00 2.9 C 4.84 g/m*3 2.9 C 1.6 km/h
110 14-04-2020 09:05:00 3.1 C 4.91 g/m*3 3.1 C 1.6 km/h
111 14-04-2020 09:10:00 3.3 C 4.97 g/m*3 3.3 C 0 km/h
112 14-04-2020 09:15:00 3.6 C 4.95 g/m*3 3.6 C 1.6 km/h
113 14-04-2020 09:20:00 3.9 C 4.99 g/m*3 3.9 C 1.6 km/h
114 14-04-2020 09:25:00 4.3 C 5.12 g/m*3 4.3 C 1.6 km/h
115 14-04-2020 09:30:00 4.6 C 5.1 g/m*3 4.6 C 0 km/h
116 14-04-2020 09:35:00 4.9 C 5.06 g/m*3 4.9 C 3.2 km/h
117 14-04-2020 09:40:00 5.1 C 5.06 g/m*3 5.1 C 4.8 km/h
118 14-04-2020 09:45:00 5.2 C 5.03 g/m*3 5.2 C 3.2 km/h
119 14-04-2020 09:50:00 5.4 C 5.02 g/m*3 5.4 C 3.2 km/h
120 14-04-2020 09:55:00 5.6 C 5.09 g/m*3 5.6 C 1.6 km/h
121 14-04-2020 10:00:00 5.9 C 5.05 g/m*3 5.9 C 4.8 km/h
122 14-04-2020 10:05:00 6.1 C 5.11 g/m*3 4.86 C 6.4 km/h
123 14-04-2020 10:10:00 6.2 C 5.07 g/m*3 6.2 C 4.8 km/h
124 14-04-2020 10:15:00 6.1 C 4.97 g/m*3 6.1 C 4.8 km/h
125 14-04-2020 10:20:00 6.1 C 4.97 g/m*3 6.1 C 4.8 km/h
Sensor: Nr:Datum:Temp:Abs-Feuchte:Windchill:Wind:
Aussen-T/F 126 14-04-2020 10:25:00 6.1 C 4.97 g/m*3 6.1 C 3.2 km/h
127 14-04-2020 10:30:00 6.2 C 5 g/m*3 6.2 C 1.6 km/h
128 14-04-2020 10:35:00 6.4 C 5.07 g/m*3 4.75 C 8.1 km/h
129 14-04-2020 10:40:00 6.7 C 4.86 g/m*3 5.56 C 6.4 km/h
130 14-04-2020 10:45:00 6.9 C 4.93 g/m*3 5.34 C 8.1 km/h
131 14-04-2020 10:50:00 7.2 C 4.95 g/m*3 4.77 C 12.9 km/h
132 14-04-2020 10:55:00 7.4 C 4.93 g/m*3 5.02 C 12.9 km/h
133 14-04-2020 11:00:00 7.6 C 4.83 g/m*3 5.26 C 12.9 km/h
134 14-04-2020 11:05:00 7.6 C 4.83 g/m*3 5.53 C 11.3 km/h
135 14-04-2020 11:10:00 7.6 C 4.67 g/m*3 5.53 C 11.3 km/h
136 14-04-2020 11:15:00 7.6 C 4.43 g/m*3 5.53 C 11.3 km/h
137 14-04-2020 11:20:00 7.7 C 4.54 g/m*3 5.38 C 12.9 km/h
138 14-04-2020 11:25:00 7.7 C 4.54 g/m*3 5.38 C 12.9 km/h
139 14-04-2020 11:30:00 7.6 C 4.51 g/m*3 4.25 C 20.9 km/h
140 14-04-2020 11:35:00 7.7 C 4.54 g/m*3 5.65 C 11.3 km/h
141 14-04-2020 11:40:00 8 C 4.38 g/m*3 5.75 C 12.9 km/h
142 14-04-2020 11:45:00 8.2 C 4.44 g/m*3 5.76 C 14.5 km/h
143 14-04-2020 11:50:00 8 C 4.38 g/m*3 5.3 C 16.1 km/h
144 14-04-2020 11:55:00 7.9 C 4.35 g/m*3 5.63 C 12.9 km/h
145 14-04-2020 12:00:00 7.9 C 4.44 g/m*3 6.52 C 8.1 km/h
146 14-04-2020 12:05:00 8 C 4.46 g/m*3 5.3 C 16.1 km/h
147 14-04-2020 12:10:00 8 C 4.55 g/m*3 5.52 C 14.5 km/h
148 14-04-2020 12:15:00 8 C 4.63 g/m*3 6.01 C 11.3 km/h
149 14-04-2020 12:20:00 8.1 C 4.66 g/m*3 5.64 C 14.5 km/h
150 14-04-2020 12:25:00 8.1 C 4.58 g/m*3 6.75 C 8.1 km/h
Sensor: Nr:Datum:Temp:Abs-Feuchte:Windchill:Wind:
Aussen-T/F 151 14-04-2020 12:30:00 8.1 C 4.49 g/m*3 8.1 C 4.8 km/h
152 14-04-2020 12:35:00 8.1 C 4.58 g/m*3 6.13 C 11.3 km/h
153 14-04-2020 12:40:00 8.3 C 4.55 g/m*3 5.68 C 16.1 km/h
154 14-04-2020 12:45:00 8.4 C 4.5 g/m*3 7.52 C 6.4 km/h
155 14-04-2020 12:50:00 8.6 C 4.55 g/m*3 7.75 C 6.4 km/h
156 14-04-2020 12:55:00 8.7 C 4.5 g/m*3 7.46 C 8.1 km/h
157 14-04-2020 13:00:00 8.7 C 4.41 g/m*3 7.87 C 6.4 km/h
158 14-04-2020 13:05:00 8.8 C 4.61 g/m*3 7.25 C 9.7 km/h
159 14-04-2020 13:10:00 8.9 C 4.64 g/m*3 7.09 C 11.3 km/h
160 14-04-2020 13:15:00 8.9 C 4.64 g/m*3 7.37 C 9.7 km/h
161 14-04-2020 13:20:00 8.9 C 4.73 g/m*3 7.37 C 9.7 km/h
162 14-04-2020 13:25:00 9.1 C 4.79 g/m*3 8.33 C 6.4 km/h
163 14-04-2020 13:30:00 9.2 C 4.64 g/m*3 7.73 C 9.7 km/h
164 14-04-2020 13:35:00 9.2 C 4.64 g/m*3 7.73 C 9.7 km/h
165 14-04-2020 13:40:00 9.3 C 4.76 g/m*3 8.16 C 8.1 km/h
166 14-04-2020 13:45:00 9.3 C 4.49 g/m*3 8.16 C 8.1 km/h
167 14-04-2020 13:50:00 9.1 C 4.44 g/m*3 7.61 C 9.7 km/h
168 14-04-2020 13:55:00 9 C 4.58 g/m*3 7.81 C 8.1 km/h
169 14-04-2020 14:00:00 9.1 C 4.61 g/m*3 7.61 C 9.7 km/h
170 14-04-2020 14:05:00 9.2 C 4.55 g/m*3 8.05 C 8.1 km/h
171 14-04-2020 14:10:00 9.3 C 4.49 g/m*3 7.85 C 9.7 km/h
172 14-04-2020 14:15:00 9.6 C 4.49 g/m*3 8.52 C 8.1 km/h
173 14-04-2020 14:20:00 9.8 C 4.73 g/m*3 9.14 C 6.4 km/h
174 14-04-2020 14:25:00 10.2 C 4.57 g/m*3 8.92 C 9.7 km/h
175 14-04-2020 14:30:00 10.1 C 4.54 g/m*3 8.54 C 11.3 km/h
Sensor: Nr:Datum:Temp:Abs-Feuchte:Windchill:Wind:
Aussen-T/F 176 14-04-2020 14:35:00 10.2 C 4.57 g/m*3 9.22 C 8.1 km/h
177 14-04-2020 14:40:00 10.2 C 4.57 g/m*3 9.22 C 8.1 km/h
178 14-04-2020 14:45:00 10.2 C 4.57 g/m*3 8.92 C 9.7 km/h
179 14-04-2020 14:50:00 10.3 C 4.6 g/m*3 9.34 C 8.1 km/h
180 14-04-2020 14:55:00 10.4 C 4.63 g/m*3 9.16 C 9.7 km/h
181 14-04-2020 15:00:00 10.4 C 4.63 g/m*3 9.46 C 8.1 km/h
182 14-04-2020 15:05:00 10.4 C 4.53 g/m*3 9.83 C 6.4 km/h
183 14-04-2020 15:10:00 10.6 C 4.68 g/m*3 9.69 C 8.1 km/h
184 14-04-2020 15:15:00 10.8 C 4.65 g/m*3 9.38 C 11.3 km/h
185 14-04-2020 15:20:00 10.9 C 4.58 g/m*3 9.51 C 11.3 km/h
186 14-04-2020 15:25:00 10.8 C 4.55 g/m*3 9.64 C 9.7 km/h
187 14-04-2020 15:30:00 10.7 C 4.42 g/m*3 10.18 C 6.4 km/h
188 14-04-2020 15:35:00 10.9 C 4.67 g/m*3 9.76 C 9.7 km/h
189 14-04-2020 15:40:00 11.2 C 4.76 g/m*3 11.2 C 9.7 km/h
190 14-04-2020 15:45:00 11.2 C 4.56 g/m*3 11.2 C 16.1 km/h
191 14-04-2020 15:50:00 11.2 C 4.56 g/m*3 11.2 C 8.1 km/h
192 14-04-2020 15:55:00 11.1 C 4.53 g/m*3 11.1 C 11.3 km/h
193 14-04-2020 16:00:00 11.2 C 4.66 g/m*3 11.2 C 11.3 km/h
194 14-04-2020 16:05:00 11.3 C 4.59 g/m*3 11.3 C 9.7 km/h
195 14-04-2020 16:10:00 11.3 C 4.69 g/m*3 11.3 C 9.7 km/h
196 14-04-2020 16:15:00 11.6 C 4.78 g/m*3 11.6 C 8.1 km/h
197 14-04-2020 16:20:00 12 C 4.8 g/m*3 12 C 11.3 km/h
198 14-04-2020 16:25:00 12.1 C 4.5 g/m*3 12.1 C 9.7 km/h
199 14-04-2020 16:30:00 11.8 C 4.53 g/m*3 11.8 C 6.4 km/h
200 14-04-2020 16:35:00 11.8 C 4.74 g/m*3 11.8 C 14.5 km/h
Sensor: Nr:Datum:Temp:Abs-Feuchte:Windchill:Wind:
Aussen-T/F 201 14-04-2020 16:40:00 11.8 C 4.74 g/m*3 11.8 C 12.9 km/h
202 14-04-2020 16:45:00 11.9 C 4.77 g/m*3 11.9 C 8.1 km/h
203 14-04-2020 16:50:00 12.4 C 4.92 g/m*3 12.4 C 6.4 km/h
204 14-04-2020 16:55:00 12.7 C 4.68 g/m*3 12.7 C 16.1 km/h
205 14-04-2020 17:00:00 12.4 C 4.7 g/m*3 12.4 C 11.3 km/h
206 14-04-2020 17:05:00 11.7 C 4.5 g/m*3 11.7 C 12.9 km/h
207 14-04-2020 17:10:00 11.4 C 4.62 g/m*3 11.4 C 9.7 km/h
208 14-04-2020 17:15:00 11.6 C 4.68 g/m*3 11.6 C 12.9 km/h
209 14-04-2020 17:20:00 12.2 C 4.64 g/m*3 12.2 C 6.4 km/h
210 14-04-2020 17:25:00 12.5 C 4.62 g/m*3 12.5 C 9.7 km/h
211 14-04-2020 17:30:00 12.5 C 4.51 g/m*3 12.5 C 8.1 km/h
212 14-04-2020 17:35:00 12.5 C 4.51 g/m*3 12.5 C 6.4 km/h
213 14-04-2020 17:40:00 12.6 C 4.65 g/m*3 12.6 C 11.3 km/h
214 14-04-2020 17:45:00 12.6 C 4.65 g/m*3 12.6 C 11.3 km/h
215 14-04-2020 17:50:00 12.6 C 4.76 g/m*3 12.6 C 11.3 km/h
216 14-04-2020 17:55:00 12.9 C 4.73 g/m*3 12.9 C 11.3 km/h
217 14-04-2020 18:00:00 13 C 4.76 g/m*3 13 C 11.3 km/h
218 14-04-2020 18:05:00 13 C 4.65 g/m*3 13 C 9.7 km/h
219 14-04-2020 18:10:00 12.9 C 4.62 g/m*3 12.9 C 8.1 km/h
220 14-04-2020 18:15:00 12.8 C 4.59 g/m*3 12.8 C 8.1 km/h
221 14-04-2020 18:20:00 12.8 C 4.59 g/m*3 12.8 C 12.9 km/h
222 14-04-2020 18:25:00 12.8 C 4.7 g/m*3 12.8 C 11.3 km/h
223 14-04-2020 18:30:00 12.8 C 4.59 g/m*3 12.8 C 9.7 km/h
224 14-04-2020 18:35:00 12.7 C 4.68 g/m*3 12.7 C 9.7 km/h
225 14-04-2020 18:40:00 12.8 C 4.7 g/m*3 12.8 C 4.8 km/h
Sensor: Nr:Datum:Temp:Abs-Feuchte:Windchill:Wind:
Aussen-T/F 226 14-04-2020 18:45:00 12.8 C 4.7 g/m*3 12.8 C 11.3 km/h
227 14-04-2020 18:50:00 12.7 C 4.56 g/m*3 12.7 C 11.3 km/h
228 14-04-2020 18:55:00 12.4 C 4.59 g/m*3 12.4 C 9.7 km/h
229 14-04-2020 19:00:00 12.4 C 4.59 g/m*3 12.4 C 8.1 km/h
230 14-04-2020 19:05:00 12.3 C 4.56 g/m*3 12.3 C 6.4 km/h
231 14-04-2020 19:10:00 12.2 C 4.64 g/m*3 12.2 C 6.4 km/h
232 14-04-2020 19:15:00 11.9 C 4.45 g/m*3 11.9 C 9.7 km/h
233 14-04-2020 19:20:00 11.7 C 4.5 g/m*3 11.7 C 11.3 km/h
234 14-04-2020 19:25:00 11.4 C 4.41 g/m*3 11.4 C 12.9 km/h
235 14-04-2020 19:30:00 11.2 C 4.56 g/m*3 11.2 C 6.4 km/h
236 14-04-2020 19:35:00 11.1 C 4.63 g/m*3 11.1 C 6.4 km/h
237 14-04-2020 19:40:00 10.9 C 4.67 g/m*3 10.41 C 6.4 km/h
238 14-04-2020 19:45:00 10.8 C 4.65 g/m*3 9.93 C 8.1 km/h
239 14-04-2020 19:50:00 10.7 C 4.62 g/m*3 9.81 C 8.1 km/h
240 14-04-2020 19:55:00 10.6 C 4.68 g/m*3 10.6 C 3.2 km/h
241 14-04-2020 20:00:00 10.4 C 4.63 g/m*3 10.4 C 4.8 km/h
242 14-04-2020 20:05:00 10.2 C 4.76 g/m*3 9.6 C 6.4 km/h
243 14-04-2020 20:10:00 10 C 4.6 g/m*3 9.37 C 6.4 km/h
244 14-04-2020 20:15:00 9.8 C 4.64 g/m*3 9.14 C 6.4 km/h
245 14-04-2020 20:20:00 9.7 C 4.98 g/m*3 9.7 C 1.6 km/h
246 14-04-2020 20:25:00 9.3 C 4.94 g/m*3 9.3 C 1.6 km/h
247 14-04-2020 20:30:00 8.8 C 4.87 g/m*3 8.8 C 3.2 km/h
248 14-04-2020 20:35:00 8.3 C 4.89 g/m*3 8.3 C 3.2 km/h
249 14-04-2020 20:40:00 7.9 C 5.01 g/m*3 7.9 C 3.2 km/h
250 14-04-2020 20:45:00 7.4 C 4.85 g/m*3 7.4 C 4.8 km/h
Sensor: Nr:Datum:Temp:Abs-Feuchte:Windchill:Wind:
Aussen-T/F 251 14-04-2020 20:50:00 7.2 C 4.87 g/m*3 7.2 C 4.8 km/h
252 14-04-2020 20:55:00 7 C 4.88 g/m*3 5.9 C 6.4 km/h
253 14-04-2020 21:00:00 6.8 C 4.89 g/m*3 5.67 C 6.4 km/h
254 14-04-2020 21:05:00 6.7 C 4.86 g/m*3 6.7 C 4.8 km/h
255 14-04-2020 21:10:00 6.5 C 4.87 g/m*3 6.5 C 4.8 km/h
256 14-04-2020 21:15:00 6.3 C 4.89 g/m*3 6.3 C 4.8 km/h
257 14-04-2020 21:20:00 6.2 C 4.85 g/m*3 6.2 C 4.8 km/h
258 14-04-2020 21:25:00 6.1 C 4.89 g/m*3 4.86 C 6.4 km/h
259 14-04-2020 21:30:00 6 C 4.94 g/m*3 4.75 C 6.4 km/h
260 14-04-2020 21:35:00 5.9 C 4.98 g/m*3 5.9 C 4.8 km/h
261 14-04-2020 21:40:00 5.8 C 4.94 g/m*3 5.8 C 0 km/h
262 14-04-2020 21:45:00 5.7 C 4.91 g/m*3 5.7 C 4.8 km/h
263 14-04-2020 21:50:00 5.7 C 4.91 g/m*3 5.7 C 4.8 km/h
264 14-04-2020 21:55:00 5.6 C 4.88 g/m*3 4.29 C 6.4 km/h
265 14-04-2020 22:00:00 5.6 C 4.88 g/m*3 5.6 C 4.8 km/h
266 14-04-2020 22:05:00 5.6 C 4.95 g/m*3 5.6 C 4.8 km/h
267 14-04-2020 22:10:00 5.5 C 4.92 g/m*3 5.5 C 3.2 km/h
268 14-04-2020 22:15:00 5.4 C 4.88 g/m*3 5.4 C 3.2 km/h
269 14-04-2020 22:20:00 5.3 C 4.85 g/m*3 5.3 C 1.6 km/h
270 14-04-2020 22:25:00 5.4 C 4.95 g/m*3 5.4 C 1.6 km/h
271 14-04-2020 22:30:00 5.4 C 4.88 g/m*3 5.4 C 0 km/h
272 14-04-2020 22:35:00 5.4 C 4.88 g/m*3 5.4 C 0 km/h
273 14-04-2020 22:40:00 5.3 C 4.85 g/m*3 5.3 C 0 km/h
274 14-04-2020 22:45:00 5.3 C 4.92 g/m*3 5.3 C 1.6 km/h
275 14-04-2020 22:50:00 5.2 C 4.89 g/m*3 5.2 C 0 km/h
Sensor: Nr:Datum:Temp:Abs-Feuchte:Windchill:Wind:
Aussen-T/F 276 14-04-2020 22:55:00 5 C 4.89 g/m*3 5 C 3.2 km/h
277 14-04-2020 23:00:00 4.9 C 4.86 g/m*3 4.9 C 3.2 km/h
278 14-04-2020 23:05:00 4.8 C 4.9 g/m*3 4.8 C 1.6 km/h
279 14-04-2020 23:10:00 4.7 C 4.93 g/m*3 4.7 C 0 km/h
280 14-04-2020 23:15:00 4.5 C 4.86 g/m*3 4.5 C 0 km/h
281 14-04-2020 23:20:00 4.3 C 4.8 g/m*3 4.3 C 0 km/h
282 14-04-2020 23:25:00 4.2 C 4.83 g/m*3 4.2 C 1.6 km/h
283 14-04-2020 23:30:00 4.1 C 4.86 g/m*3 4.1 C 0 km/h
284 14-04-2020 23:35:00 3.9 C 4.86 g/m*3 3.9 C 1.6 km/h
285 14-04-2020 23:40:00 3.8 C 4.83 g/m*3 3.8 C 0 km/h
286 14-04-2020 23:45:00 3.7 C 4.8 g/m*3 3.7 C 0 km/h
287 14-04-2020 23:50:00 3.6 C 4.83 g/m*3 3.6 C 0 km/h
288 14-04-2020 23:55:00 3.6 C 4.83 g/m*3 3.6 C 0 km/h
289 15-04-2020 00:00:00 3.4 C 4.76 g/m*3 3.4 C 0 km/h
290 15-04-2020 00:05:00 3.3 C 4.79 g/m*3 3.3 C 0 km/h
291 15-04-2020 00:10:00 3.2 C 4.76 g/m*3 3.2 C 0 km/h
292 15-04-2020 00:15:00 3.1 C 4.73 g/m*3 3.1 C 0 km/h
293 15-04-2020 00:20:00 3.1 C 4.73 g/m*3 3.1 C 0 km/h
294 15-04-2020 00:25:00 2.9 C 4.72 g/m*3 2.9 C 0 km/h
295 15-04-2020 00:30:00 2.8 C 4.69 g/m*3 2.8 C 0 km/h
296 15-04-2020 00:35:00 2.8 C 4.69 g/m*3 2.8 C 0 km/h
297 15-04-2020 00:40:00 2.7 C 4.66 g/m*3 2.7 C 0 km/h
298 15-04-2020 00:45:00 2.6 C 4.69 g/m*3 2.6 C 0 km/h
299 15-04-2020 00:50:00 2.5 C 4.71 g/m*3 2.5 C 0 km/h
300 15-04-2020 00:55:00 2.4 C 4.68 g/m*3 2.4 C 0 km/h
Sensor: Nr:Datum:Temp:Abs-Feuchte:Windchill:Wind:
Aussen-T/F 301 15-04-2020 01:00:00 2.4 C 4.68 g/m*3 2.4 C 0 km/h
302 15-04-2020 01:05:00 2.4 C 4.68 g/m*3 2.4 C 0 km/h
303 15-04-2020 01:10:00 2.3 C 4.65 g/m*3 2.3 C 0 km/h
304 15-04-2020 01:15:00 2.3 C 4.65 g/m*3 2.3 C 0 km/h
305 15-04-2020 01:20:00 2.2 C 4.68 g/m*3 2.2 C 0 km/h
306 15-04-2020 01:25:00 2.1 C 4.64 g/m*3 2.1 C 0 km/h
307 15-04-2020 01:30:00 2 C 4.61 g/m*3 2 C 0 km/h
308 15-04-2020 01:35:00 1.9 C 4.58 g/m*3 1.9 C 0 km/h
309 15-04-2020 01:40:00 1.9 C 4.64 g/m*3 1.9 C 0 km/h
310 15-04-2020 01:45:00 1.9 C 4.64 g/m*3 1.9 C 0 km/h
311 15-04-2020 01:50:00 1.8 C 4.6 g/m*3 1.8 C 0 km/h
312 15-04-2020 01:55:00 1.7 C 4.57 g/m*3 1.7 C 0 km/h
313 15-04-2020 02:00:00 1.7 C 4.57 g/m*3 1.7 C 0 km/h
314 15-04-2020 02:05:00 1.6 C 4.54 g/m*3 1.6 C 0 km/h
315 15-04-2020 02:10:00 1.6 C 4.6 g/m*3 1.6 C 0 km/h
316 15-04-2020 02:15:00 1.6 C 4.6 g/m*3 1.6 C 0 km/h
317 15-04-2020 02:20:00 1.5 C 4.57 g/m*3 1.5 C 0 km/h
318 15-04-2020 02:25:00 1.4 C 4.53 g/m*3 1.4 C 0 km/h
319 15-04-2020 02:30:00 1.4 C 4.59 g/m*3 1.4 C 0 km/h
320 15-04-2020 02:35:00 1.3 C 4.56 g/m*3 1.3 C 0 km/h
321 15-04-2020 02:40:00 1.3 C 4.56 g/m*3 1.3 C 0 km/h
322 15-04-2020 02:45:00 1.3 C 4.56 g/m*3 1.3 C 0 km/h
323 15-04-2020 02:50:00 1.2 C 4.53 g/m*3 1.2 C 0 km/h
324 15-04-2020 02:55:00 1.1 C 4.49 g/m*3 1.1 C 0 km/h
325 15-04-2020 03:00:00 1.1 C 4.55 g/m*3 1.1 C 0 km/h
Sensor: Nr:Datum:Temp:Abs-Feuchte:Windchill:Wind:
Aussen-T/F 326 15-04-2020 03:05:00 1.1 C 4.55 g/m*3 1.1 C 0 km/h
327 15-04-2020 03:10:00 1 C 4.52 g/m*3 1 C 0 km/h
328 15-04-2020 03:15:00 0.9 C 4.48 g/m*3 0.9 C 0 km/h
329 15-04-2020 03:20:00 0.9 C 4.48 g/m*3 0.9 C 0 km/h
330 15-04-2020 03:25:00 0.8 C 4.45 g/m*3 0.8 C 0 km/h
331 15-04-2020 03:30:00 0.8 C 4.45 g/m*3 0.8 C 0 km/h
332 15-04-2020 03:35:00 0.8 C 4.51 g/m*3 0.8 C 0 km/h
333 15-04-2020 03:40:00 0.7 C 4.47 g/m*3 0.7 C 0 km/h
334 15-04-2020 03:45:00 0.7 C 4.47 g/m*3 0.7 C 0 km/h
335 15-04-2020 03:50:00 0.7 C 4.47 g/m*3 0.7 C 0 km/h
336 15-04-2020 03:55:00 0.7 C 4.47 g/m*3 0.7 C 0 km/h
337 15-04-2020 04:00:00 0.6 C 4.44 g/m*3 0.6 C 0 km/h
338 15-04-2020 04:05:00 0.6 C 4.44 g/m*3 0.6 C 0 km/h
339 15-04-2020 04:10:00 0.6 C 4.44 g/m*3 0.6 C 0 km/h
340 15-04-2020 04:15:00 0.6 C 4.49 g/m*3 0.6 C 0 km/h
341 15-04-2020 04:20:00 0.6 C 4.49 g/m*3 0.6 C 0 km/h
342 15-04-2020 04:25:00 0.6 C 4.49 g/m*3 0.6 C 0 km/h
343 15-04-2020 04:30:00 0.6 C 4.49 g/m*3 0.6 C 0 km/h
344 15-04-2020 04:35:00 0.5 C 4.46 g/m*3 0.5 C 0 km/h
345 15-04-2020 04:40:00 0.5 C 4.46 g/m*3 0.5 C 0 km/h
346 15-04-2020 04:45:00 0.4 C 4.43 g/m*3 0.4 C 0 km/h
347 15-04-2020 04:50:00 0.4 C 4.43 g/m*3 0.4 C 0 km/h
348 15-04-2020 04:55:00 0.4 C 4.43 g/m*3 0.4 C 0 km/h
349 15-04-2020 05:00:00 0.4 C 4.43 g/m*3 0.4 C 0 km/h
350 15-04-2020 05:05:00 0.4 C 4.48 g/m*3 0.4 C 0 km/h
Sensor: Nr:Datum:Temp:Abs-Feuchte:Windchill:Wind:
Aussen-T/F 351 15-04-2020 05:10:00 0.4 C 4.48 g/m*3 0.4 C 0 km/h
352 15-04-2020 05:15:00 0.4 C 4.48 g/m*3 0.4 C 0 km/h
353 15-04-2020 05:20:00 0.4 C 4.48 g/m*3 0.4 C 0 km/h
354 15-04-2020 05:25:00 0.3 C 4.45 g/m*3 0.3 C 0 km/h
355 15-04-2020 05:30:00 0.3 C 4.45 g/m*3 0.3 C 0 km/h
356 15-04-2020 05:35:00 0.3 C 4.45 g/m*3 0.3 C 0 km/h
357 15-04-2020 05:40:00 0.3 C 4.45 g/m*3 0.3 C 0 km/h
358 15-04-2020 05:45:00 0.3 C 4.45 g/m*3 0.3 C 0 km/h
359 15-04-2020 05:50:00 0.2 C 4.42 g/m*3 0.2 C 0 km/h
360 15-04-2020 05:55:00 0.2 C 4.42 g/m*3 0.2 C 0 km/h
361 15-04-2020 06:00:00 0.1 C 4.39 g/m*3 0.1 C 0 km/h
362 15-04-2020 06:05:00 0.1 C 4.39 g/m*3 0.1 C 0 km/h
363 15-04-2020 06:10:00 0.1 C 4.39 g/m*3 0.1 C 0 km/h
364 15-04-2020 06:15:00 0.1 C 4.39 g/m*3 0.1 C 0 km/h
365 15-04-2020 06:20:00 0.1 C 4.44 g/m*3 0.1 C 0 km/h
366 15-04-2020 06:25:00 0.2 C 4.47 g/m*3 0.2 C 0 km/h
367 15-04-2020 06:30:00 0.2 C 4.47 g/m*3 0.2 C 0 km/h
368 15-04-2020 06:35:00 0.2 C 4.47 g/m*3 0.2 C 0 km/h
369 15-04-2020 06:40:00 0.1 C 4.44 g/m*3 0.1 C 0 km/h
370 15-04-2020 06:45:00 0.1 C 4.44 g/m*3 0.1 C 0 km/h
371 15-04-2020 06:50:00 0 C 4.41 g/m*3 0 C 0 km/h
372 15-04-2020 06:55:00 -0.1 C 4.38 g/m*3 -0.1 C 0 km/h
373 15-04-2020 07:00:00 -0.1 C 4.38 g/m*3 -0.1 C 0 km/h
374 15-04-2020 07:05:00 -0.1 C 4.38 g/m*3 -0.1 C 0 km/h
375 15-04-2020 07:10:00 -0.1 C 4.38 g/m*3 -0.1 C 0 km/h
Sensor: Nr:Datum:Temp:Abs-Feuchte:Windchill:Wind:
Aussen-T/F 376 15-04-2020 07:15:00 0 C 4.46 g/m*3 0 C 0 km/h
377 15-04-2020 07:20:00 0.1 C 4.49 g/m*3 0.1 C 0 km/h
378 15-04-2020 07:25:00 0.1 C 4.49 g/m*3 0.1 C 0 km/h
379 15-04-2020 07:30:00 0.2 C 4.52 g/m*3 0.2 C 0 km/h
380 15-04-2020 07:35:00 0.3 C 4.55 g/m*3 0.3 C 1.6 km/h
381 15-04-2020 07:40:00 0.4 C 4.58 g/m*3 0.4 C 0 km/h
382 15-04-2020 07:45:00 0.5 C 4.61 g/m*3 0.5 C 0 km/h
383 15-04-2020 07:50:00 0.6 C 4.65 g/m*3 0.6 C 0 km/h
384 15-04-2020 07:55:00 0.7 C 4.68 g/m*3 0.7 C 1.6 km/h
385 15-04-2020 08:00:00 0.8 C 4.71 g/m*3 0.8 C 1.6 km/h
386 15-04-2020 08:05:00 0.9 C 4.74 g/m*3 0.9 C 1.6 km/h
387 15-04-2020 08:10:00 1.1 C 4.81 g/m*3 1.1 C 1.6 km/h
388 15-04-2020 08:15:00 1.2 C 4.84 g/m*3 1.2 C 0 km/h
389 15-04-2020 08:20:00 1.3 C 4.82 g/m*3 1.3 C 0 km/h
390 15-04-2020 08:25:00 1.4 C 4.85 g/m*3 1.4 C 0 km/h
391 15-04-2020 08:30:00 1.5 C 4.89 g/m*3 1.5 C 0 km/h
392 15-04-2020 08:35:00 1.6 C 4.92 g/m*3 1.6 C 0 km/h
393 15-04-2020 08:40:00 1.8 C 4.93 g/m*3 1.8 C 0 km/h
394 15-04-2020 08:45:00 1.9 C 4.97 g/m*3 1.9 C 0 km/h
395 15-04-2020 08:50:00 2.1 C 4.98 g/m*3 2.1 C 0 km/h
396 15-04-2020 08:55:00 2.2 C 5.01 g/m*3 2.2 C 1.6 km/h
397 15-04-2020 09:00:00 2.4 C 5.02 g/m*3 2.4 C 0 km/h
398 15-04-2020 09:05:00 2.6 C 5.03 g/m*3 2.6 C 0 km/h
399 15-04-2020 09:10:00 2.7 C 5.01 g/m*3 2.7 C 0 km/h
400 15-04-2020 09:15:00 2.8 C 5.04 g/m*3 2.8 C 0 km/h
Sensor: Nr:Datum:Temp:Abs-Feuchte:Windchill:Wind:
Aussen-T/F 401 15-04-2020 09:20:00 3 C 5.11 g/m*3 3 C 0 km/h
402 15-04-2020 09:25:00 3.2 C 5.12 g/m*3 3.2 C 0 km/h
403 15-04-2020 09:30:00 3.3 C 5.16 g/m*3 3.3 C 0 km/h
404 15-04-2020 09:35:00 3.5 C 5.16 g/m*3 3.5 C 0 km/h
405 15-04-2020 09:40:00 3.7 C 5.17 g/m*3 3.7 C 0 km/h
406 15-04-2020 09:45:00 3.9 C 5.24 g/m*3 3.9 C 0 km/h
407 15-04-2020 09:50:00 4.1 C 5.25 g/m*3 4.1 C 0 km/h
408 15-04-2020 09:55:00 4.3 C 5.25 g/m*3 4.3 C 0 km/h
409 15-04-2020 10:00:00 4.6 C 5.36 g/m*3 4.6 C 0 km/h
410 15-04-2020 10:05:00 4.8 C 5.36 g/m*3 4.8 C 0 km/h
411 15-04-2020 10:10:00 4.9 C 5.4 g/m*3 4.9 C 0 km/h
412 15-04-2020 10:15:00 5.2 C 5.37 g/m*3 5.2 C 0 km/h
413 15-04-2020 10:20:00 5.4 C 5.44 g/m*3 5.4 C 0 km/h
414 15-04-2020 10:25:00 5.7 C 5.55 g/m*3 5.7 C 0 km/h
415 15-04-2020 10:30:00 5.9 C 5.55 g/m*3 5.9 C 0 km/h
416 15-04-2020 10:35:00 6.2 C 5.66 g/m*3 6.2 C 0 km/h
417 15-04-2020 10:40:00 6.4 C 5.51 g/m*3 6.4 C 0 km/h
418 15-04-2020 10:45:00 6.6 C 5.66 g/m*3 6.6 C 0 km/h
419 15-04-2020 10:50:00 6.9 C 5.62 g/m*3 6.9 C 0 km/h
420 15-04-2020 10:55:00 7.2 C 5.73 g/m*3 7.2 C 3.2 km/h
421 15-04-2020 11:00:00 7.4 C 5.73 g/m*3 7.4 C 3.2 km/h
422 15-04-2020 11:05:00 7.8 C 5.88 g/m*3 7.8 C 1.6 km/h
423 15-04-2020 11:10:00 8.1 C 5.82 g/m*3 8.1 C 3.2 km/h
424 15-04-2020 11:15:00 8.4 C 5.94 g/m*3 8.4 C 3.2 km/h
425 15-04-2020 11:20:00 8.8 C 5.92 g/m*3 8.8 C 4.8 km/h
Sensor: Nr:Datum:Temp:Abs-Feuchte:Windchill:Wind:
Aussen-T/F 426 15-04-2020 11:25:00 9.1 C 5.94 g/m*3 9.1 C 1.6 km/h
427 15-04-2020 11:30:00 9.4 C 6.06 g/m*3 9.4 C 0 km/h
428 15-04-2020 11:35:00 9.8 C 5.75 g/m*3 8.75 C 8.1 km/h
429 15-04-2020 11:40:00 10.2 C 5.71 g/m*3 10.2 C 4.8 km/h
430 15-04-2020 11:45:00 10.6 C 5.27 g/m*3 9.4 C 9.7 km/h
431 15-04-2020 11:50:00 10.9 C 5.17 g/m*3 10.9 C 4.8 km/h
432 15-04-2020 11:55:00 11.3 C 5.1 g/m*3 11.3 C 4.8 km/h
433 15-04-2020 12:00:00 11.7 C 5.23 g/m*3 11.7 C 4.8 km/h
434 15-04-2020 12:05:00 11.9 C 4.98 g/m*3 11.9 C 4.8 km/h
435 15-04-2020 12:10:00 12.2 C 5.07 g/m*3 12.2 C 8.1 km/h
436 15-04-2020 12:15:00 12.3 C 4.99 g/m*3 12.3 C 8.1 km/h
437 15-04-2020 12:20:00 12.4 C 5.14 g/m*3 12.4 C 3.2 km/h
438 15-04-2020 12:25:00 12.6 C 5.09 g/m*3 12.6 C 4.8 km/h
439 15-04-2020 12:30:00 12.7 C 5.12 g/m*3 12.7 C 8.1 km/h
440 15-04-2020 12:35:00 12.9 C 5.3 g/m*3 12.9 C 8.1 km/h
441 15-04-2020 12:40:00 13.1 C 5.25 g/m*3 13.1 C 8.1 km/h
442 15-04-2020 12:45:00 13.2 C 5.4 g/m*3 13.2 C 4.8 km/h
443 15-04-2020 12:50:00 13.3 C 5.43 g/m*3 13.3 C 3.2 km/h
444 15-04-2020 12:55:00 13.3 C 5.31 g/m*3 13.3 C 3.2 km/h
445 15-04-2020 13:00:00 13.3 C 5.31 g/m*3 13.3 C 8.1 km/h
446 15-04-2020 13:05:00 13.4 C 5.23 g/m*3 13.4 C 9.7 km/h
447 15-04-2020 13:10:00 13.4 C 5.23 g/m*3 13.4 C 8.1 km/h
448 15-04-2020 13:15:00 13.6 C 5.18 g/m*3 13.6 C 12.9 km/h
449 15-04-2020 13:20:00 13.6 C 5.18 g/m*3 13.6 C 6.4 km/h
450 15-04-2020 13:25:00 13.7 C 5.21 g/m*3 13.7 C 6.4 km/h
Sensor: Nr:Datum:Temp:Abs-Feuchte:Windchill:Wind:
Aussen-T/F 451 15-04-2020 13:30:00 13.9 C 5.27 g/m*3 13.9 C 9.7 km/h
452 15-04-2020 13:35:00 14.2 C 5.25 g/m*3 14.2 C 8.1 km/h
453 15-04-2020 13:40:00 14.3 C 5.16 g/m*3 14.3 C 6.4 km/h
454 15-04-2020 13:45:00 14.4 C 5.07 g/m*3 14.4 C 12.9 km/h
455 15-04-2020 13:50:00 14.6 C 5.13 g/m*3 14.6 C 9.7 km/h
456 15-04-2020 13:55:00 14.6 C 5.26 g/m*3 14.6 C 8.1 km/h
457 15-04-2020 14:00:00 14.7 C 5.16 g/m*3 14.7 C 8.1 km/h
458 15-04-2020 14:05:00 14.9 C 5.23 g/m*3 14.9 C 8.1 km/h
459 15-04-2020 14:10:00 15.1 C 5.03 g/m*3 15.1 C 12.9 km/h
460 15-04-2020 14:15:00 15.2 C 5.19 g/m*3 15.2 C 8.1 km/h
461 15-04-2020 14:20:00 15.4 C 4.99 g/m*3 15.4 C 6.4 km/h
462 15-04-2020 14:25:00 15.4 C 5.26 g/m*3 15.4 C 8.1 km/h
463 15-04-2020 14:30:00 15.6 C 5.19 g/m*3 15.6 C 8.1 km/h
464 15-04-2020 14:35:00 15.7 C 5.22 g/m*3 15.7 C 4.8 km/h
465 15-04-2020 14:40:00 15.9 C 5.15 g/m*3 15.9 C 8.1 km/h
466 15-04-2020 14:45:00 16.1 C 5.35 g/m*3 16.1 C 9.7 km/h
467 15-04-2020 14:50:00 16.2 C 5.1 g/m*3 16.2 C 4.8 km/h
468 15-04-2020 14:55:00 16.3 C 5.27 g/m*3 16.3 C 6.4 km/h
469 15-04-2020 15:00:00 16.5 C 5.34 g/m*3 16.5 C 4.8 km/h
470 15-04-2020 15:05:00 16.6 C 5.23 g/m*3 16.6 C 6.4 km/h
471 15-04-2020 15:10:00 16.6 C 5.09 g/m*3 16.6 C 8.1 km/h
472 15-04-2020 15:15:00 16.6 C 5.23 g/m*3 16.6 C 12.9 km/h
473 15-04-2020 15:20:00 16.7 C 5.12 g/m*3 16.7 C 12.9 km/h
474 15-04-2020 15:25:00 16.9 C 5.61 g/m*3 16.9 C 6.4 km/h
475 15-04-2020 15:30:00 17.3 C 5.75 g/m*3 17.3 C 17.7 km/h
Sensor: Nr:Datum:Temp:Abs-Feuchte:Windchill:Wind:
Aussen-T/F 476 15-04-2020 15:35:00 17.5 C 5.52 g/m*3 17.5 C 11.3 km/h
477 15-04-2020 15:40:00 17.5 C 5.37 g/m*3 17.5 C 8.1 km/h
478 15-04-2020 15:45:00 17.6 C 5.7 g/m*3 17.6 C 6.4 km/h
479 15-04-2020 15:50:00 17.7 C 5.58 g/m*3 17.7 C 8.1 km/h
480 15-04-2020 15:55:00 17.7 C 5.43 g/m*3 17.7 C 9.7 km/h
481 15-04-2020 16:00:00 17.8 C 5.62 g/m*3 17.8 C 8.1 km/h
482 15-04-2020 16:05:00 17.8 C 5.31 g/m*3 17.8 C 8.1 km/h
483 15-04-2020 16:10:00 17.9 C 5.5 g/m*3 17.9 C 9.7 km/h
484 15-04-2020 16:15:00 18.3 C 5.47 g/m*3 18.3 C 9.7 km/h
485 15-04-2020 16:20:00 18.6 C 5.57 g/m*3 18.6 C 4.8 km/h
486 15-04-2020 16:25:00 18.8 C 5.48 g/m*3 18.8 C 4.8 km/h
487 15-04-2020 16:30:00 19.2 C 5.77 g/m*3 19.2 C 11.3 km/h
488 15-04-2020 16:35:00 19.4 C 5.51 g/m*3 19.4 C 9.7 km/h
489 15-04-2020 16:40:00 19.6 C 5.4 g/m*3 19.6 C 8.1 km/h
490 15-04-2020 16:45:00 19.6 C 5.91 g/m*3 19.6 C 3.2 km/h
491 15-04-2020 16:50:00 19.8 C 5.47 g/m*3 19.8 C 4.8 km/h
492 15-04-2020 16:55:00 20.1 C 5.21 g/m*3 20.1 C 3.2 km/h
493 15-04-2020 17:00:00 20.1 C 5.56 g/m*3 20.1 C 8.1 km/h
494 15-04-2020 17:05:00 20.2 C 5.6 g/m*3 20.2 C 4.8 km/h
495 15-04-2020 17:10:00 20.3 C 5.63 g/m*3 20.3 C 8.1 km/h
496 15-04-2020 17:15:00 20.4 C 5.48 g/m*3 20.4 C 8.1 km/h
497 15-04-2020 17:20:00 20.6 C 5.55 g/m*3 20.6 C 11.3 km/h
498 15-04-2020 17:25:00 20.6 C 5.55 g/m*3 20.6 C 6.4 km/h
499 15-04-2020 17:30:00 20.5 C 5.69 g/m*3 20.5 C 9.7 km/h
500 15-04-2020 17:35:00 20.5 C 5.34 g/m*3 20.5 C 6.4 km/h
Sensor: Nr:Datum:Temp:Abs-Feuchte:Windchill:Wind:
Aussen-T/F 501 15-04-2020 17:40:00 20.6 C 5.55 g/m*3 20.6 C 8.1 km/h
502 15-04-2020 17:45:00 20.6 C 5.37 g/m*3 20.6 C 12.9 km/h
503 15-04-2020 17:50:00 20.6 C 5.55 g/m*3 20.6 C 6.4 km/h
504 15-04-2020 17:55:00 20.7 C 6.12 g/m*3 20.7 C 8.1 km/h
505 15-04-2020 18:00:00 20.9 C 5.83 g/m*3 20.9 C 4.8 km/h
506 15-04-2020 18:05:00 20.8 C 6.16 g/m*3 20.8 C 8.1 km/h
507 15-04-2020 18:10:00 20.3 C 5.45 g/m*3 20.3 C 12.9 km/h
508 15-04-2020 18:15:00 20.3 C 6.33 g/m*3 20.3 C 6.4 km/h
509 15-04-2020 18:20:00 20.2 C 5.6 g/m*3 20.2 C 11.3 km/h
510 15-04-2020 18:25:00 19.9 C 5.67 g/m*3 19.9 C 9.7 km/h
511 15-04-2020 18:30:00 19.8 C 5.81 g/m*3 19.8 C 11.3 km/h
512 15-04-2020 18:35:00 19.9 C 5.67 g/m*3 19.9 C 8.1 km/h
513 15-04-2020 18:40:00 20.2 C 5.42 g/m*3 20.2 C 4.8 km/h
514 15-04-2020 18:45:00 20.2 C 5.42 g/m*3 20.2 C 6.4 km/h
515 15-04-2020 18:50:00 20.3 C 5.63 g/m*3 20.3 C 6.4 km/h
516 15-04-2020 18:55:00 20.5 C 5.52 g/m*3 20.5 C 9.7 km/h
517 15-04-2020 19:00:00 20.5 C 5.69 g/m*3 20.5 C 3.2 km/h
518 15-04-2020 19:05:00 20.3 C 5.63 g/m*3 20.3 C 4.8 km/h
519 15-04-2020 19:10:00 20.2 C 5.6 g/m*3 20.2 C 1.6 km/h
520 15-04-2020 19:15:00 20.2 C 5.77 g/m*3 20.2 C 4.8 km/h
521 15-04-2020 19:20:00 19.9 C 5.67 g/m*3 19.9 C 9.7 km/h
522 15-04-2020 19:25:00 19.6 C 5.4 g/m*3 19.6 C 6.4 km/h
523 15-04-2020 19:30:00 19.2 C 5.61 g/m*3 19.2 C 6.4 km/h
524 15-04-2020 19:35:00 18.8 C 5.96 g/m*3 18.8 C 4.8 km/h
525 15-04-2020 19:40:00 18.5 C 5.38 g/m*3 18.5 C 4.8 km/h
Sensor: Nr:Datum:Temp:Abs-Feuchte:Windchill:Wind:
Aussen-T/F 526 15-04-2020 19:45:00 18.1 C 5.56 g/m*3 18.1 C 4.8 km/h
527 15-04-2020 19:50:00 17.7 C 6.04 g/m*3 17.7 C 0 km/h
528 15-04-2020 19:55:00 17.2 C 6.3 g/m*3 17.2 C 3.2 km/h
529 15-04-2020 20:00:00 16.6 C 6.22 g/m*3 16.6 C 3.2 km/h
530 15-04-2020 20:05:00 15.9 C 6.23 g/m*3 15.9 C 3.2 km/h
531 15-04-2020 20:10:00 15.2 C 6.1 g/m*3 15.2 C 4.8 km/h
532 15-04-2020 20:15:00 14.7 C 6.04 g/m*3 14.7 C 4.8 km/h
533 15-04-2020 20:20:00 14.2 C 5.86 g/m*3 14.2 C 6.4 km/h
534 15-04-2020 20:25:00 13.8 C 5.96 g/m*3 13.8 C 6.4 km/h
535 15-04-2020 20:30:00 13.5 C 5.97 g/m*3 13.5 C 6.4 km/h
536 15-04-2020 20:35:00 13.2 C 5.97 g/m*3 13.2 C 6.4 km/h
537 15-04-2020 20:40:00 12.9 C 5.75 g/m*3 12.9 C 6.4 km/h
538 15-04-2020 20:45:00 12.7 C 5.68 g/m*3 12.7 C 6.4 km/h
539 15-04-2020 20:50:00 12.5 C 5.72 g/m*3 12.5 C 6.4 km/h
540 15-04-2020 20:55:00 12.4 C 5.79 g/m*3 12.4 C 6.4 km/h
541 15-04-2020 21:00:00 12.2 C 5.94 g/m*3 12.2 C 3.2 km/h
542 15-04-2020 21:05:00 11.9 C 5.93 g/m*3 11.9 C 4.8 km/h
543 15-04-2020 21:10:00 11.7 C 5.96 g/m*3 11.7 C 4.8 km/h
544 15-04-2020 21:15:00 11.4 C 5.85 g/m*3 11.4 C 4.8 km/h
545 15-04-2020 21:20:00 11.3 C 5.92 g/m*3 11.3 C 4.8 km/h
546 15-04-2020 21:25:00 11.2 C 5.88 g/m*3 11.2 C 4.8 km/h
547 15-04-2020 21:30:00 11.1 C 6.04 g/m*3 11.1 C 4.8 km/h
548 15-04-2020 21:35:00 10.9 C 5.97 g/m*3 10.9 C 3.2 km/h
549 15-04-2020 21:40:00 10.7 C 5.99 g/m*3 10.7 C 1.6 km/h
550 15-04-2020 21:45:00 10.4 C 5.88 g/m*3 10.4 C 1.6 km/h
Sensor: Nr:Datum:Temp:Abs-Feuchte:Windchill:Wind:
Aussen-T/F 551 15-04-2020 21:50:00 10.3 C 6.03 g/m*3 10.3 C 3.2 km/h
552 15-04-2020 21:55:00 10.1 C 6.05 g/m*3 10.1 C 0 km/h
553 15-04-2020 22:00:00 9.8 C 6.03 g/m*3 9.8 C 3.2 km/h
554 15-04-2020 22:05:00 9.6 C 5.95 g/m*3 9.6 C 0 km/h
555 15-04-2020 22:10:00 9.5 C 6.01 g/m*3 9.5 C 3.2 km/h
556 15-04-2020 22:15:00 9.4 C 6.06 g/m*3 9.4 C 1.6 km/h
557 15-04-2020 22:20:00 9.3 C 6.02 g/m*3 9.3 C 0 km/h
558 15-04-2020 22:25:00 9.2 C 6.07 g/m*3 9.2 C 0 km/h
559 15-04-2020 22:30:00 9.1 C 6.03 g/m*3 9.1 C 0 km/h
560 15-04-2020 22:35:00 8.9 C 5.96 g/m*3 8.9 C 0 km/h
561 15-04-2020 22:40:00 8.8 C 5.83 g/m*3 8.8 C 0 km/h
562 15-04-2020 22:45:00 8.7 C 5.79 g/m*3 8.7 C 0 km/h
563 15-04-2020 22:50:00 8.6 C 5.84 g/m*3 8.6 C 0 km/h
564 15-04-2020 22:55:00 8.4 C 5.85 g/m*3 8.4 C 0 km/h
565 15-04-2020 23:00:00 8.3 C 5.9 g/m*3 8.3 C 0 km/h
566 15-04-2020 23:05:00 8.1 C 5.74 g/m*3 8.1 C 0 km/h
567 15-04-2020 23:10:00 7.9 C 5.75 g/m*3 7.9 C 0 km/h
568 15-04-2020 23:15:00 7.8 C 5.71 g/m*3 7.8 C 0 km/h
569 15-04-2020 23:20:00 7.8 C 5.71 g/m*3 7.8 C 0 km/h
570 15-04-2020 23:25:00 7.7 C 5.68 g/m*3 7.7 C 0 km/h
571 15-04-2020 23:30:00 7.6 C 5.8 g/m*3 7.6 C 0 km/h
572 15-04-2020 23:35:00 7.5 C 5.68 g/m*3 7.5 C 0 km/h
573 15-04-2020 23:40:00 7.3 C 5.61 g/m*3 7.3 C 0 km/h
574 15-04-2020 23:45:00 7.3 C 5.69 g/m*3 7.3 C 0 km/h
575 15-04-2020 23:50:00 7.2 C 5.73 g/m*3 7.2 C 0 km/h
Sensor: Nr:Datum:Temp:Abs-Feuchte:Windchill:Wind:
Aussen-T/F 576 15-04-2020 23:55:00 7.1 C 5.69 g/m*3 7.1 C 0 km/h

Legende:
   Min
   Max


Maximal/Minimal-Werte vom 14.04.2020 - 15.04.2020

Sensor Min Max Avg
Temp
(Aussen-T/F)
-0.1 °C
15-04-2020  06:55:00
20.9 °C
15-04-2020  18:00:00
7.39 °C
Abs-Feuchte
(Aussen-T/F)
4.02 g/m*3
14-04-2020  04:45:00
6.33 g/m*3
15-04-2020  18:15:00
4.86 g/m*3
Windchill
(Aussen-T/F)
-0.1 C
15-04-2020  06:55:00
20.9 C
15-04-2020  18:00:00
7.18 C

Die Daten stammen von einer Davis Vantage Pro 2 Wetter-Station und werden unter Linux mit der Software wview2wettercgi und aufbereitet. Alle Angaben erfolgen ohne Gewähr für ihre Vollständigkeit oder Richtigkeit.
Kontakt: Rainer Krienke krienke@uni-koblenz.de . Meine Webseiten an der Uni Koblenz oder privat.
Version: $Revision: 0.78 $